Time,TemperatureF,DewpointF,PressureIn,WindDirection,WindDirectionDegrees,WindSpeedMPH,WindSpeedGustMPH,Humidity,HourlyPrecipIn,Conditions,Clouds,dailyrainin,SolarRadiationWatts/m^2,SoftwareType,DateUTC
2013-07-28 00:00:00,62.0,59.0,-100.00,SE,137,2.0,5.0,90,-99.99,,,-99.99,1.360000,,2013-07-28 06:00:00,
2013-07-28 02:00:00,59.0,57.0,-100.00,SE,131,2.0,3.0,91,-99.99,,,-99.99,1.400000,,2013-07-28 08:00:00,
2013-07-28 02:53:00,59.0,57.0,-100.00,SE,131,2.0,3.0,91,-99.99,,,-99.99,1.400000,,2013-07-28 08:53:00,
2013-07-28 03:00:00,59.0,56.0,-100.00,SSE,147,3.0,3.0,90,-99.99,,,-99.99,1.190000,,2013-07-28 09:00:00,
2013-07-28 04:00:00,57.0,55.0,-100.00,SSE,166,3.0,6.0,94,-99.99,,,-99.99,1.360000,,2013-07-28 10:00:00,
2013-07-28 05:00:00,57.0,54.0,-100.00,SSE,162,3.0,5.0,92,-99.99,,,-99.99,1.310000,,2013-07-28 11:00:00,
2013-07-28 05:54:00,57.0,54.0,-100.00,SSE,162,3.0,5.0,92,-99.99,,,-99.99,1.310000,,2013-07-28 11:54:00,
2013-07-28 06:00:00,56.0,54.0,-100.00,SE,132,2.0,6.0,93,-99.99,,,-99.99,0.570000,,2013-07-28 12:00:00,
2013-07-28 07:00:00,57.0,55.0,-100.00,SE,125,1.0,5.0,92,-99.99,,,-99.99,11.010000,,2013-07-28 13:00:00,
2013-07-28 08:00:00,63.0,58.0,-100.00,SSE,159,2.0,3.0,82,-99.99,,,-99.99,142.600006,,2013-07-28 14:00:00,
2013-07-28 10:00:00,68.0,58.0,-100.00,South,189,4.0,7.0,69,-99.99,,,-99.99,511.000000,,2013-07-28 16:00:00,
2013-07-28 11:00:00,72.0,59.0,-100.00,South,183,5.0,7.0,63,-99.99,,,-99.99,684.500000,,2013-07-28 17:00:00,
2013-07-28 12:00:00,76.0,56.0,-100.00,South,170,5.0,9.0,49,-99.99,,,-99.99,833.000000,,2013-07-28 18:00:00,
2013-07-28 12:52:00,76.0,56.0,-100.00,South,170,5.0,9.0,49,-99.99,,,-99.99,833.000000,,2013-07-28 18:52:00,
2013-07-28 13:00:00,77.0,53.0,-100.00,South,190,6.0,10.0,43,-99.99,,,-99.99,841.000000,,2013-07-28 19:00:00,
2013-07-28 13:52:00,77.0,53.0,-100.00,South,190,6.0,10.0,43,-99.99,,,-99.99,841.000000,,2013-07-28 19:52:00,
2013-07-28 14:00:00,81.0,51.0,-100.00,South,190,4.0,12.0,35,-99.99,,,-99.99,965.000000,,2013-07-28 20:00:00,
2013-07-28 14:53:00,81.0,51.0,-100.00,South,190,4.0,12.0,35,-99.99,,,-99.99,965.000000,,2013-07-28 20:53:00,
2013-07-28 15:00:00,81.0,49.0,-100.00,North,357,10.0,17.0,32,-99.99,,,-99.99,737.400024,,2013-07-28 21:00:00,
2013-07-28 16:00:00,83.0,44.0,-100.00,North,353,5.0,20.0,25,-99.99,,,-99.99,861.000000,,2013-07-28 22:00:00,
2013-07-28 19:00:00,64.0,53.0,-100.00,NE,39,12.0,49.0,66,-99.99,,,-99.99,57.509998,,2013-07-29 01:00:00,
2013-07-28 20:00:00,66.0,53.0,-100.00,WNW,298,6.0,26.0,64,-99.99,,,-99.99,66.830002,,2013-07-29 02:00:00,
2013-07-28 21:00:00,64.0,55.0,-100.00,WSW,246,4.0,-999.0,72,-99.99,,,-99.99,15.930000,,2013-07-29 03:00:00,
2013-07-28 22:00:00,64.0,55.0,-100.00,WSW,246,4.0,10.0,72,-99.99,,,-99.99,15.900000,,2013-07-29 04:00:00,
2013-07-28 23:00:00,63.0,55.0,-100.00,NNE,16,6.0,18.0,76,-99.99,,,-99.99,0.000000,,2013-07-29 05:00:00,
2013-07-28 23:53:00,63.0,55.0,-100.00,NNE,16,6.0,18.0,76,-99.99,,,-99.99,0.000000,,2013-07-29 05:53:00,